Location: Roanoke
(37.2710°N, 79.9420°W)
Time: 03:32:04
(UTC-05:00)

Transit 2A - Pass Details

Date: 25 November 2019
Orbit: 602 x 957 km, 66.7° (Epoch: 14 December)

Event Time Altitude Azimuth Distance (km) Brightness Sun altitude
Rises 20:39:48 0° 321° (NW) 2,867 9.4 -42.5°
Enters shadow 20:39:49 - 321° (NW) 2,858 9.4 -42.5°
Reaches altitude 10° 20:42:11 10° 311° (NW) 1,979 - -43.0°
Maximum altitude 20:46:06 31° 249° (WSW) 1,107 - -43.8°
Drops below altitude 10° 20:50:14 10° 186° (S) 2,088 - -44.6°
Sets 20:52:49 0° 177° (S) 3,054 - -45.1°
